Regional Weather Roundup
Issued by NWS Charleston, SC

Current Version | Previous Version | Text Only | Print | Product List | Glossary Off
Versions: 1 2 3 4 5 6 7 8 9 10 11 12 13 14 15 16 17 18 19 20 21 22 23 24 25 26 27 28 29 30 31 32 33 34 35 36 37 38 39 40 41 42 43 44 45 46 47 48 49 50

000
ASUS42 KCHS 210112
RWRCHS

REGIONAL WEATHER ROUNDUP
NATIONAL WEATHER SERVICE CHARLESTON SC
900 PM EDT SUN AUG 20 2017

NOTE: "FAIR" INDICATES FEW OR NO CLOUDS BELOW 12,000 FEET WITH NO
SIGNIFICANT WEATHER AND/OR OBSTRUCTIONS TO VISIBILITY.

NOT ALL STATIONS ARE QUALITY CONTROLLED. USE DATA WITH CAUTION...
ESPECIALLY DEWPOINT OBSERVATIONS.

SCZ027-030-031-034>040-042>050-210200-
...SOUTHEAST SOUTH CAROLINA...

CITY           SKY/WX    TMP DP  RH WIND       PRES   REMARKS
N CHARLESTON   CLOUDY    83  77  82 SE6       30.10R HX  92
WATERFRONT PRK   N/A     85  79  82 S7        29.94R HX  98
JOHNS ISLAND   FAIR      84  79  84 SE5       30.10R HX  96
PINOPOLIS        N/A     84  79  84 CALM      30.03R HX  96
MONCKS CORNER  FAIR      81  77  89 CALM      30.10R
SUMMERVILLE    FAIR      81  77  89 CALM      30.11R
BEAUFORT MCAS  CLOUDY    86  81  85 SE5       30.09R HX 102
BEAUFORT ARPT  FAIR      82  77  83 SE3       30.09R HX  91
HILTON HEAD IS CLOUDY    84  77  79 VRB3      30.10R HX  94
WALTERBORO     CLOUDY    81  77  89 SE3       30.11R
ALLENDALE      NOT AVBL

...SOUTHERN MIDLANDS AND PEE DEE...

CITY           SKY/WX    TMP DP  RH WIND       PRES   REMARKS
GEORGETOWN     FAIR      79  79 100 SE3       30.12R
KINGSTREE      FAIR      79  75  89 E3        30.11R
ORANGEBURG     PTCLDY    83  74  74 S5        30.11R
BARNWELL       FAIR      86  75  70 SE7       30.10R HX  95
AIKEN          FAIR      82  68  61 SE5       30.13R
MANNING        FAIR      81  75  83 N9        30.10R
COLUMBIA       PTCLDY    86  70  58 SE7       30.09R HX  90
SUMTER         CLOUDY    86  72  63 SE7       30.08R HX  92
FLORENCE       CLOUDY    84  75  74 SE6       30.12R HX  92
MYRTLE BEACH   PTCLDY    84  79  84 MISG      30.12R HX  96
N MYRTLE BEACH CLEAR     84  77  79 SE6       30.12R HX  94

$$

GAZ063-065-086>088-099>101-113>116-118-119-134>141-150-210200-
...SOUTHEAST GEORGIA...

CITY           SKY/WX    TMP DP  RH WIND       PRES   REMARKS
SAVANNAH ARPT  CLOUDY    84  77  79 SE5       30.09R HX  94
HUNTER AAF     MOCLDY    84  77  79 SE7       30.07R HX  94
FORT STEWART   MOCLDY    79  75  85 E3        30.07R
STATESBORO     MOCLDY    83  73  71 SE3       30.09R HX  90
SYLVANIA       CLOUDY    82  80  91 CALM      30.11R HX  94
CLAXTON        FAIR      82  77  83 CALM      30.09R HX  91

...CSRA...CENTRAL AND FAR SOUTHEAST GEORGIA...

CITY           SKY/WX    TMP DP  RH WIND       PRES   REMARKS
THOMSON        CLEAR     80  76  86 CALM      30.14R
AUGUSTA-BUSH   PTCLDY    85  76  74 SE8       30.07R HX  94
AUGUSTA-DANIEL CLEAR     90  65  43 E3        30.09R HX  92
SWAINSBORO     FAIR      86  73  66 SE7       30.10R HX  93
VIDALIA        CLOUDY    82  73  74 SE6       30.10R
EASTMAN        FAIR      88  63  43 SE5       30.10R
HAZLEHURST     FAIR      85  63  47 SE5       30.08R
ALMA           CLOUDY    80  71  74 SE3       30.08R
WAYCROSS       CLOUDY    78  71  79 CALM      30.08S
JESUP          FAIR      79  72  78 CALM      30.09R
BAXLEY         FAIR      79  73  83 S3        30.09R
BRUNSWICK      MOCLDY    82  73  74 SE5       30.09R
SAINT SIMONS   MOCLDY    85  78  80 SE8       30.08R HX  96

$$

SCZ027-028-034-036>038-045-046-048>050-GAZ119-141-210200-
...LAKE AND SUPPLEMENTAL COASTAL OBSERVATIONS...

STATION/POSITION TIME  TEMP    WIND        PRES    WAVE   SWELL
                       AIR SEA DIR/SP/G            HT/PER HT/PER/DIR
                 (UTC) (F)     (DEG/KT/KT) (MB)    (FT/S) (FT/S/D)
WINYAH BAY       2345   85     160/  7     1019.0
LAKE MURRAY      0020   89     110/  2/  9 1017.3R
ACE BASIN NERRS  2345   85     130/  3     1018.0
FORT PULASKI     0048   85 87  150/  4/  6 1019.2R
SAPELO ISLAND    0000   85     140/  1     1018.0

$$

ANZ835-935-AMZ111-154-330-350-352-354-370-450-454-472-210200-
...C-MAN AND BUOY OBSERVATIONS...

STATION/POSITION TIME  TEMP    WIND        PRES    WAVE   SWELL
                       AIR SEA DIR/SP/G            HT/PER HT/PER/DIR
                 (UTC) (F)     (DEG/KT/KT) (MB)    (FT/S) (FT/S/D)
BUOY 41004       0050   85     160/  8/ 10 1018.7R   3/ 9   3/130/ 9
BUOY 41008       2350   85 86  140/ 12/ 12 1017.7    2/ 8   2/100/ 8
FOLLY BEACH CMAN 0000   85     150/ 10/ 11 1019.1F
CAPERS NEARSHORE 0008   83 87  170/ 10/ 14 1018.3R
FRIPP NEARSHORE  0008   85     160/  8/ 12 1018.2R


STATION/POSITION TIME  TEMP    WIND        PRES    WAVE   SWELL
                       AIR SEA DIR/SP/G            HT/PER HT/PER/DIR
                 (UTC) (F)     (DEG/KT/KT) (MB)    (FT/S) (FT/S/D)
5E ST. MARYS GA  0030      85                N/A     3/ 8
FRYING PAN BUOY  0050   84 85  130/  4/  8 1019.6R   2/ 8   2/120/ 8
BUOY 41025       0050   83 85  120/  4/  4 1020.5R   2/ 9   2/ 90/ 9
CAPE LOOKOUT NC  0000   81     120/  7/  8 1019.8R
BUOY 41002       0050   83 85  150/  8/  8 1020.9R   3/ 8   3/ 90/ 8
BUOY 41010       0050   80 85   80/  6/  8 1018.8R   2/ 9   2/110/ 9
ST AUGUSTINE FL  0100   82 83  160/ 12/ 12 1018.7R


$$




USA.gov is the U.S. government's official web portal to all federal, state and local government web resources and services.